MAKIL Weather Reports


Display with metric or nautical units.
time (UTC)temp
F
wind
direction
speed
MPH
gust
MPH
rain 1hr
in
rain 24hr
in
rain mn
in
humidity
%
barometer
mb
20260506132721 45 242 17.0 21.0 0.00 0.00 0.00 64
20260506130720 47 249 20.0 23.0 0.00 0.00 0.00 62
20260506124720 47 244 17.0 22.0 0.00 0.00 0.00 62
20260506122721 47 234 17.0 22.0 0.00 0.00 0.00 63
20260506120720 47 227 18.0 21.0 0.00 0.00 0.00 67
20260506114721 45 226 18.0 22.0 0.00 0.00 0.00 72
20260506112721 46 229 19.0 22.0 0.00 0.00 0.00 73
20260506110721 46 230 18.0 24.0 0.00 0.00 0.00 74
20260506104721 45 225 19.0 23.0 0.00 0.00 0.00 73
20260506102722 46 224 15.0 22.0 0.00 0.00 0.00 71
20260506100722 44 221 16.0 21.0 0.00 0.00 0.00 76
20260506094722 46 224 15.0 19.0 0.00 0.00 0.00 72
20260506092721 45 231 12.0 17.0 0.00 0.00 0.00 76
20260506090721 45 234 14.0 17.0 0.00 0.00 0.00 74
20260506084722 45 237 15.0 17.0 0.00 0.00 0.00 73
20260506082722 46 235 15.0 18.0 0.00 0.00 0.00 72
20260506080721 44 232 11.0 16.0 0.00 0.00 0.00 79
20260506072722 45 230 9.0 13.0 0.00 0.00 0.00 78
20260506070721 44 236 10.0 12.0 0.00 0.00 0.00 75
20260506060721 44 268 9.0 11.0 0.00 0.00 0.00 68
20260506050721 43 266 12.0 14.0 0.00 0.00 0.00 74
20260506044721 42 259 11.0 13.0 0.00 0.00 0.00 72
20260506042721 42 264 14.0 17.0 0.00 0.00 0.00 73
20260506040720 41 266 14.0 16.0 0.00 0.00 0.00 75
20260506034721 41 264 13.0 15.0 0.00 0.00 0.00 77
20260506032720 40 268 13.0 15.0 0.00 0.00 0.00 79
20260506030721 39 268 12.0 13.0 0.00 0.00 0.00 80
20260506024720 39 266 12.0 13.0 0.00 0.00 0.00 79
20260506022720 38 264 10.0 12.0 0.00 0.00 0.00 83
20260506020720 38 271 11.0 12.0 0.00 0.00 0.00 80
20260506014720 38 267 11.0 15.0 0.00 0.00 0.00 81
20260506012720 38 271 11.0 12.0 0.00 0.00 0.00 81
20260506010720 38 279 10.0 11.0 0.00 0.00 0.00 84
20260506004720 38 288 11.0 13.0 0.00 0.00 0.00 82
20260506000720 38 294 15.0 17.0 0.00 0.00 0.00 78
20260505234720 38 295 16.0 17.0 0.00 0.00 0.00 76
20260505232720 39 292 15.0 17.0 0.00 0.00 0.00 79
20260505230720 39 289 16.0 19.0 0.00 0.00 0.00 78
20260505224719 39 289 18.0 20.0 0.00 0.00 0.00 76
20260505222719 40 292 18.0 21.0 0.00 0.00 0.00 76
20260505220720 40 288 20.0 23.0 0.00 0.00 0.00 75
20260505214720 40 284 20.0 23.0 0.00 0.00 0.00 75
20260505212720 40 281 20.0 22.0 0.00 0.00 0.00 73
20260505210719 40 280 20.0 23.0 0.00 0.00 0.00 72
20260505204719 41 281 19.0 22.0 0.00 0.00 0.00 72
20260505202720 41 278 22.0 24.0 0.00 0.00 0.00 68
20260505200719 41 279 23.0 26.0 0.00 0.00 0.00 68
20260505194719 42 281 26.0 30.0 0.00 0.00 0.00 66
20260505192719 42 280 23.0 28.0 0.00 0.00 0.00 67
20260505190719 41 257 24.0 29.0 0.00 0.00 0.00 86
20260505184718 41 256 26.0 29.0 0.00 0.00 0.00 83
20260505182719 41 256 27.0 31.0 0.00 0.00 0.00 82
20260505180718 42 255 27.0 30.0 0.00 0.00 0.00 80
20260505174718 42 252 27.0 31.0 0.00 0.00 0.00 81
20260505172718 42 250 27.0 31.0 0.00 0.00 0.00 83
20260505170718 42 253 26.0 29.0 0.00 0.00 0.00 83
20260505164718 43 253 28.0 32.0 0.00 0.00 0.00 83
20260505162718 43 253 27.0 32.0 0.00 0.00 0.00 81
20260505160718 43 253 27.0 31.0 0.00 0.00 0.00 79
20260505152718 44 250 28.0 32.0 0.00 0.00 0.00 76
20260505150718 44 251 27.0 31.0 0.00 0.00 0.00 78